Weather in Ustinovka

Russia / Primorsky Krai     44˚15′10″N   135˚13′48″E
temp.,
°C
wind,
m/s
gust,
m/s
humid.,
%
clouds,
%
prec.,
mm/h
press.,
hPa
HPBL,
m
17 january, sun
sun1701:00−24˚wnw49880 0.0 1022256
04:00−25˚wnw47890 0.0 1022215
07:00−26˚wnw34910 0.0 1022127
10:00−24˚wnw34870 0.0 1021171
13:00−16˚wnw37710 0.0 1019499
16:00−15˚wnw376917 0.0 1017647
19:00−19˚nw238796 0.0 101993
22:00−23˚wnw229154 0.0 102052
18 january, mon
mon1801:00−24˚wnw22920 0.0 101946
04:00−25˚wnw22920 0.0 101735
07:00−24˚wnw129033 0.0 101626
10:00−20˚wnw118258 0.0 101553
13:00−14˚nw1273100 0.0 1013264
16:00−12˚wnw1376100 0.1 1010674
19:00−16˚nw2877100 0.1 1012248
22:00−17˚nw51180100 0.1 1013743
19 january, tue
tue1901:00−20˚nw61575100 0.0 1016835
04:00−23˚nw8177367 0.0 1018889
07:00−23˚nw818710 0.0 1023905
10:00−25˚nw717720 0.0 1026738
13:00−21˚nw816670 0.0 1028908
16:00−21˚nw816680 0.0 1029823
19:00−25˚wnw412800 0.0 1032485
22:00−28˚wnw34880 0.0 1032152
20 january, wed
wed2001:00−29˚wnw33880 0.0 103298
04:00−29˚wnw23860 0.0 103292
07:00−28˚wnw22810 0.0 103167
10:00−23˚wnw22720 0.0 103195
13:00−14˚wnw12610 0.0 1027255
16:00−9˚w13700 0.0 1024410
19:00−14˚wnw11871 0.0 102320
22:00−14˚wnw129345 0.0 102220
21 january, thu
thu2101:00−14˚w129586 0.0 102122
04:00−14˚wnw3128746 0.0 1021427
07:00−13˚nw717740 0.0 1023785
10:00−14˚nw717650 0.0 1026908
13:00−12˚nw614570 0.0 10251081
16:00−11˚nw613590 0.0 10251092
19:00−16˚wnw27820 0.0 1027182
22:00−19˚wnw22890 0.0 102833